Main page
Satellite images Climate Cyclones Lightning AirportsFAQ Languages Contact Newsletter About
Weather : Europe Africa North America South America Asia Australia-Oceania Others

udon-thani-th, Khon Kaen, Khon Kaen Airport

48381

latitude: , longitude: Thailand, elevation: 16-26N m


METAR: VTUK 240500Z 140016KT 040V200 5000 TSRA FEW018CB SCT020 BKN080 29/24 Q1008 TEMPO TL0540 5000 TSRA